timestamp,wind_dir_avg,wind_spd_avg,wind_spd_max_dir,wind_spd_gust,battery_voltage,lat,long
2023-09-14 00:04:01+00:00,98.0,2.74,83.0,5.2,12.49,47.59359,-54.27349
2023-09-14 00:14:01+00:00,99.0,2.41,92.0,4.27,12.41,47.59359,-54.27349
2023-09-14 00:24:01+00:00,124.0,2.27,133.0,3.81,12.41,47.59359,-54.27349
2023-09-14 00:34:01+00:00,111.0,2.43,120.0,4.79,12.41,47.59359,-54.27349
2023-09-14 00:44:01+00:00,117.0,3.35,117.0,4.99,12.41,47.59359,-54.27349
2023-09-14 00:54:01+00:00,119.0,4.29,105.0,6.32,12.41,47.59359,-54.27349
2023-09-14 01:04:01+00:00,122.0,3.86,120.0,5.22,12.41,47.59359,-54.27349
2023-09-14 01:14:01+00:00,126.0,3.85,130.0,4.85,12.41,47.59359,-54.27349
2023-09-14 01:24:01+00:00,136.0,3.53,142.0,4.38,12.41,47.59359,-54.27349
2023-09-14 01:34:01+00:00,127.0,2.96,132.0,3.47,12.41,47.59359,-54.27349
2023-09-14 01:44:01+00:00,124.0,2.82,117.0,3.98,12.41,47.59359,-54.27349
2023-09-14 01:54:01+00:00,114.0,1.64,150.0,2.64,12.41,47.59359,-54.27349
2023-09-14 02:04:01+00:00,94.0,1.27,110.0,2.44,12.41,47.59359,-54.27349
2023-09-14 02:14:00+00:00,115.0,2.36,131.0,3.91,12.41,47.59359,-54.27349
2023-09-14 02:24:00+00:00,87.0,1.84,71.0,3.64,12.41,47.59359,-54.27349
2023-09-14 02:34:00+00:00,83.0,2.54,105.0,3.89,12.41,47.59359,-54.27349
2023-09-14 02:44:00+00:00,74.0,1.52,62.0,2.51,12.41,47.59359,-54.27349
2023-09-14 02:54:00+00:00,70.0,1.26,77.0,1.6,12.41,47.59359,-54.27349
2023-09-14 03:04:00+00:00,80.0,1.48,67.0,1.95,12.41,47.59359,-54.27349
2023-09-14 03:14:01+00:00,79.0,1.72,63.0,2.88,12.41,47.59359,-54.27349
2023-09-14 03:24:01+00:00,98.0,1.58,114.0,2.68,12.41,47.59359,-54.27349
2023-09-14 03:34:01+00:00,98.0,1.54,93.0,2.11,12.41,47.59359,-54.27349
2023-09-14 03:44:01+00:00,106.0,2.57,112.0,3.55,12.41,47.59359,-54.27349
2023-09-14 03:54:01+00:00,106.0,1.69,107.0,3.08,12.41,47.59359,-54.27349
2023-09-14 04:04:01+00:00,75.0,1.89,82.0,2.99,12.41,47.59359,-54.27349
2023-09-14 04:14:01+00:00,97.0,2.04,102.0,3.26,12.41,47.59359,-54.27349
2023-09-14 04:24:01+00:00,93.0,2.27,97.0,4.07,12.41,47.59359,-54.27349
2023-09-14 04:34:01+00:00,97.0,2.57,104.0,3.74,12.41,47.59359,-54.27349
2023-09-14 04:44:01+00:00,103.0,2.71,120.0,4.37,12.41,47.59359,-54.27349
2023-09-14 04:54:01+00:00,108.0,2.03,107.0,2.81,12.41,47.59359,-54.27349
2023-09-14 05:04:01+00:00,98.0,1.07,134.0,1.87,12.41,47.59359,-54.27349
2023-09-14 05:14:01+00:00,111.0,1.63,110.0,2.91,12.41,47.59359,-54.27349
2023-09-14 05:24:01+00:00,111.0,1.64,128.0,2.68,12.41,47.59359,-54.27349
2023-09-14 05:34:01+00:00,131.0,1.68,132.0,2.07,12.41,47.59359,-54.27349
2023-09-14 05:44:01+00:00,126.0,1.72,134.0,2.28,12.41,47.59359,-54.27349
2023-09-14 05:54:01+00:00,126.0,2.13,129.0,2.69,12.41,47.59359,-54.27349
2023-09-14 06:04:01+00:00,118.0,1.75,122.0,2.45,12.41,47.59359,-54.27349
2023-09-14 06:14:00+00:00,86.0,1.33,107.0,1.94,12.41,47.59359,-54.27349
2023-09-14 06:24:00+00:00,91.0,0.83,49.0,1.18,12.41,47.59359,-54.27349
2023-09-14 06:34:00+00:00,65.0,1.1,62.0,1.37,12.41,47.59359,-54.27349
2023-09-14 06:44:00+00:00,82.0,1.28,75.0,1.7,12.41,47.59359,-54.27349
2023-09-14 06:54:00+00:00,72.0,1.73,74.0,2.21,12.41,47.59359,-54.27349
2023-09-14 07:04:00+00:00,68.0,2.59,71.0,3.03,12.41,47.59359,-54.27349
2023-09-14 07:14:00+00:00,79.0,2.34,75.0,3.29,12.33,47.59359,-54.27349
2023-09-14 07:24:00+00:00,71.0,3.02,68.0,5.06,12.33,47.59359,-54.27349
2023-09-14 07:34:00+00:00,80.0,1.71,68.0,2.77,12.33,47.59359,-54.27349
2023-09-14 07:44:00+00:00,95.0,1.54,95.0,2.25,12.33,47.59359,-54.27349
2023-09-14 07:54:00+00:00,117.0,2.17,131.0,3.31,12.33,47.59359,-54.27349
2023-09-14 08:04:00+00:00,92.0,2.12,105.0,3.49,12.33,47.59359,-54.27349
2023-09-14 08:14:01+00:00,76.0,1.93,76.0,4.53,12.33,47.59359,-54.27349
2023-09-14 08:24:01+00:00,109.0,2.0,121.0,3.41,12.33,47.59359,-54.27349
2023-09-14 08:34:01+00:00,98.0,1.92,103.0,3.24,12.33,47.59359,-54.27349
2023-09-14 08:44:01+00:00,76.0,2.23,66.0,2.98,12.33,47.59359,-54.27349
2023-09-14 08:54:01+00:00,72.0,2.57,67.0,3.7,12.33,47.59359,-54.27349
2023-09-14 09:04:01+00:00,62.0,2.29,65.0,3.21,12.33,47.59359,-54.27349
2023-09-14 09:14:01+00:00,94.0,1.7,56.0,3.27,12.33,47.59359,-54.27349
2023-09-14 09:24:01+00:00,79.0,1.32,89.0,2.66,12.33,47.59359,-54.27349
2023-09-14 09:34:01+00:00,74.0,2.07,71.0,2.66,12.33,47.59359,-54.27349
2023-09-14 09:44:01+00:00,65.0,2.29,68.0,2.64,12.33,47.59359,-54.27349
2023-09-14 09:54:01+00:00,53.0,2.4,58.0,3.25,12.33,47.59359,-54.27349
2023-09-14 10:04:01+00:00,61.0,2.4,67.0,2.85,12.33,47.59359,-54.27349
2023-09-14 10:14:00+00:00,61.0,2.79,67.0,3.22,12.41,47.59359,-54.27349
2023-09-14 10:24:00+00:00,57.0,2.14,62.0,2.5,12.41,47.59359,-54.27349
2023-09-14 10:34:00+00:00,52.0,2.08,58.0,2.49,12.41,47.59359,-54.27349
2023-09-14 10:44:00+00:00,61.0,2.0,55.0,2.32,12.41,47.59359,-54.27349
2023-09-14 10:54:00+00:00,71.0,1.27,71.0,1.82,12.41,47.59359,-54.27349
2023-09-14 11:04:00+00:00,119.0,1.42,128.0,2.0,12.41,47.59359,-54.27349
2023-09-14 11:14:01+00:00,109.0,0.94,118.0,1.64,12.73,47.59359,-54.27349
2023-09-14 11:24:01+00:00,66.0,0.93,80.0,1.53,12.73,47.59359,-54.27349
2023-09-14 11:34:01+00:00,50.0,1.66,51.0,2.05,12.73,47.59359,-54.27349
2023-09-14 11:44:01+00:00,70.0,1.26,60.0,1.65,12.73,47.59359,-54.27349
2023-09-14 11:54:01+00:00,69.0,1.99,70.0,2.71,12.73,47.59359,-54.27349
2023-09-14 12:04:01+00:00,65.0,2.78,62.0,3.57,12.73,47.59359,-54.27349
2023-09-14 12:14:00+00:00,51.0,2.63,56.0,3.06,13.6,47.59359,-54.27349
2023-09-14 12:24:00+00:00,35.0,3.15,38.0,3.5,13.6,47.59359,-54.27349
2023-09-14 12:34:00+00:00,31.0,3.17,32.0,3.6,13.6,47.59359,-54.27349
2023-09-14 12:44:00+00:00,33.0,3.13,35.0,3.85,13.6,47.59359,-54.27349
2023-09-14 12:54:00+00:00,29.0,3.26,32.0,3.5,13.6,47.59359,-54.27349
2023-09-14 13:04:00+00:00,41.0,3.28,42.0,3.89,13.6,47.59359,-54.27349
2023-09-14 13:14:01+00:00,54.0,3.11,55.0,3.79,13.6,47.59359,-54.27349
2023-09-14 13:24:01+00:00,67.0,3.15,69.0,4.97,13.6,47.59359,-54.27349
2023-09-14 13:34:01+00:00,71.0,2.37,69.0,3.01,13.6,47.59359,-54.27349
2023-09-14 13:44:01+00:00,119.0,1.16,114.0,1.78,13.6,47.59359,-54.27349
2023-09-14 13:54:01+00:00,78.0,1.17,51.0,1.83,13.6,47.59359,-54.27349
2023-09-14 14:04:01+00:00,47.0,1.32,41.0,1.9,13.6,47.59359,-54.27349
2023-09-14 14:14:00+00:00,35.0,2.23,33.0,2.5,13.68,47.59359,-54.27349
2023-09-14 14:24:00+00:00,43.0,2.65,44.0,2.97,13.68,47.59359,-54.27349
2023-09-14 14:34:00+00:00,44.0,3.11,45.0,3.5,13.68,47.59359,-54.27349
2023-09-14 14:44:00+00:00,51.0,3.76,51.0,4.02,13.68,47.59359,-54.27349
2023-09-14 14:54:00+00:00,46.0,3.28,45.0,3.73,13.68,47.59359,-54.27349
2023-09-14 15:04:00+00:00,40.0,3.0,43.0,3.36,13.68,47.59359,-54.27349
2023-09-14 15:14:00+00:00,39.0,2.97,39.0,3.27,14.4,47.59359,-54.27349
2023-09-14 15:24:00+00:00,31.0,2.96,30.0,3.2,14.4,47.59359,-54.27349
2023-09-14 15:34:00+00:00,28.0,2.36,12.0,3.2,14.4,47.59359,-54.27349
2023-09-14 15:44:00+00:00,25.0,3.05,28.0,3.49,14.4,47.59359,-54.27349
2023-09-14 15:54:00+00:00,4.0,3.39,5.0,3.7,14.4,47.59359,-54.27349
2023-09-14 16:04:00+00:00,17.0,3.2,17.0,3.62,14.4,47.59359,-54.27349
2023-09-14 16:14:01+00:00,14.0,2.32,14.0,2.84,13.68,47.59359,-54.27349
2023-09-14 16:24:01+00:00,31.0,3.28,34.0,3.95,13.68,47.59359,-54.27349
2023-09-14 16:34:01+00:00,24.0,3.34,26.0,3.6,13.68,47.59359,-54.27349
2023-09-14 16:44:01+00:00,21.0,3.21,17.0,3.41,13.68,47.59359,-54.27349
2023-09-14 16:54:01+00:00,23.0,2.57,20.0,2.82,13.68,47.59359,-54.27349
2023-09-14 17:04:01+00:00,28.0,2.6,28.0,2.83,13.68,47.59359,-54.27349
2023-09-14 17:14:01+00:00,27.0,2.35,26.0,2.51,13.76,47.59359,-54.27349
2023-09-14 17:24:01+00:00,24.0,2.16,26.0,2.31,13.76,47.59359,-54.27349
2023-09-14 17:34:01+00:00,25.0,2.57,27.0,2.75,13.76,47.59359,-54.27349
2023-09-14 17:44:01+00:00,22.0,2.07,19.0,2.38,13.76,47.59359,-54.27349
2023-09-14 17:54:01+00:00,43.0,2.52,40.0,3.06,13.76,47.59359,-54.27349
2023-09-14 18:04:01+00:00,44.0,3.13,43.0,3.38,13.76,47.59359,-54.27349
2023-09-14 18:14:01+00:00,42.0,2.81,41.0,2.98,13.68,47.59359,-54.27349
2023-09-14 18:24:01+00:00,36.0,2.21,38.0,2.64,13.68,47.59359,-54.27349
2023-09-14 18:34:01+00:00,10.0,1.99,13.0,2.25,13.68,47.59359,-54.27349
2023-09-14 18:44:01+00:00,17.0,2.21,17.0,2.42,13.68,47.59359,-54.27349
2023-09-14 18:54:01+00:00,25.0,1.98,29.0,2.19,13.68,47.59359,-54.27349
2023-09-14 19:04:01+00:00,17.0,1.64,11.0,2.05,13.68,47.59359,-54.27349
2023-09-14 19:14:00+00:00,54.0,1.28,32.0,2.1,13.53,47.59359,-54.27349
2023-09-14 19:24:00+00:00,140.0,1.27,134.0,1.97,13.53,47.59359,-54.27349
2023-09-14 19:34:00+00:00,183.0,1.86,170.0,2.96,13.53,47.59359,-54.27349
2023-09-14 19:44:00+00:00,186.0,2.15,182.0,2.49,13.53,47.59359,-54.27349
2023-09-14 19:54:00+00:00,188.0,3.71,186.0,3.98,13.53,47.59359,-54.27349
2023-09-14 20:04:00+00:00,186.0,3.66,186.0,3.86,13.53,47.59359,-54.27349
2023-09-14 20:14:00+00:00,180.0,3.8,177.0,4.19,13.37,47.59359,-54.27349
2023-09-14 20:24:00+00:00,171.0,3.63,174.0,4.26,13.37,47.59359,-54.27349
2023-09-14 20:34:00+00:00,175.0,4.0,174.0,4.39,13.37,47.59359,-54.27349
2023-09-14 20:44:00+00:00,315.0,0.01,197.0,0.0,13.37,47.59359,-54.27349
2023-09-14 20:54:00+00:00,217.0,3.18,234.0,4.65,13.37,47.59359,-54.27349
2023-09-14 21:04:00+00:00,210.0,2.72,227.0,3.64,13.37,47.59359,-54.27349
2023-09-14 21:14:01+00:00,315.0,0.01,243.0,0.0,12.89,47.59359,-54.27349
2023-09-14 21:24:01+00:00,217.0,2.87,222.0,3.45,12.89,47.59359,-54.27349
2023-09-14 21:34:01+00:00,237.0,4.4,246.0,6.12,12.89,47.59359,-54.27349
2023-09-14 21:44:01+00:00,226.0,4.01,235.0,5.09,12.89,47.59359,-54.27349
2023-09-14 21:54:01+00:00,229.0,4.35,241.0,6.25,12.89,47.59359,-54.27349
2023-09-14 22:04:01+00:00,179.0,3.73,178.0,4.46,12.89,47.59359,-54.27349
2023-09-14 22:14:01+00:00,180.0,4.01,178.0,4.41,12.49,47.59359,-54.27349
2023-09-14 22:24:01+00:00,182.0,3.86,183.0,4.3,12.49,47.59359,-54.27349
2023-09-14 22:34:01+00:00,180.0,4.46,180.0,4.85,12.49,47.59359,-54.27349
2023-09-14 22:44:01+00:00,178.0,4.92,177.0,5.37,12.49,47.59359,-54.27349
2023-09-14 22:54:01+00:00,175.0,4.8,176.0,5.34,12.49,47.59359,-54.27349
2023-09-14 23:04:01+00:00,176.0,4.34,182.0,4.75,12.49,47.59359,-54.27349
2023-09-14 23:14:00+00:00,174.0,4.68,174.0,5.27,12.49,47.59359,-54.27349
2023-09-14 23:24:00+00:00,174.0,4.59,175.0,4.93,12.49,47.59359,-54.27349
2023-09-14 23:34:00+00:00,179.0,4.39,180.0,5.02,12.49,47.59359,-54.27349
2023-09-14 23:44:00+00:00,179.0,5.26,178.0,5.75,12.49,47.59359,-54.27349
2023-09-14 23:54:00+00:00,179.0,5.29,178.0,5.85,12.49,47.59359,-54.27349
